Home > Time Zones > World Clock > Weather > China > Jinan > Past weeks

Flag for China Weather past 2 weeks in Jinan, China

Now
66 °F

Sunny.


Feels Like: 66 °F
Forecast: 57 / 76 °F
Wind: 3 mph from South

Location: Tianjin / Zhangguizhu


UV Index: 5 (Moderate)

Visibility: 10 mi


Pressure: 29.95 "Hg

Humidity: 24%

Dew point: 28 °F

Location of JinanLocation

Historic Weather in Jinan

°F

Jinan temperature yesterday

Maximum temperature yesterday: 64 °F (at 12:00 PM)
Minimum temperature yesterday: 50 °F (at 10:00 PM)
Average temperature yesterday: 56 °F

Past Weeks' High & Low Weather Summary

 TemperatureHumidityPressure
High86 °F (Apr 9, 3:00 PM)94% (Apr 13, 3:00 AM)30.24 "Hg (Apr 13, 3:00 AM)
Low46 °F (Apr 12, 5:00 AM)9% (Apr 16, 5:00 PM)29.77 "Hg (Apr 9, 1:00 PM)
Average60 °F47%30.03 "Hg
* Reported Apr 5 6:00 PM — Apr 20 6:00 PM, Jinan, Weather by CustomWeather, © 2014

Note: Actual official high and low records may vary slightly from our data, if they occured in-between our weather recording intervals... More about our weather records

Advertising

Historic Weather Conditions — Data for Previous 24 hours

 ConditionsComfort  
Time TempWeatherWind HumidityBarometerVisibility
6:00 PM
Apr 20
68 °FSunny.3 mph21%29.95 "Hg10 mi
5:30 PM70 °FPassing clouds.6 mph20%29.95 "HgN/A
5:00 PM70 °FPassing clouds.6 mph18%29.95 "HgN/A
4:30 PM70 °FPassing clouds.10 mph18%29.95 "HgN/A
4:00 PM70 °FPassing clouds.10 mph17%29.98 "HgN/A
3:30 PM70 °FPassing clouds.10 mph20%29.98 "HgN/A
3:00 PM70 °FPassing clouds.13 mph18%29.98 "HgN/A
2:30 PM72 °FSunny.13 mph17%29.98 "Hg10 mi
2:00 PM70 °FPassing clouds.10 mph20%30.01 "HgN/A
1:30 PM70 °FPassing clouds.13 mph20%30.01 "HgN/A
1:00 PM70 °FSunny.13 mph20%30.01 "Hg10 mi
12:30 PM70 °FPassing clouds.13 mph18%30.04 "HgN/A
12:00 PM68 °FPassing clouds.10 mph21%30.04 "HgN/A
11:30 AM68 °FPassing clouds.13 mph23%30.04 "HgN/A
11:00 AM66 °FPassing clouds.10 mph26%30.07 "HgN/A
10:30 AM66 °FClear.10 mph28%30.07 "Hg5 mi
10:00 AM64 °FClear.10 mph32%30.07 "Hg4 mi
9:30 AM63 °FClear.8 mph37%30.07 "Hg4 mi
9:00 AM61 °FHaze.8 mph42%30.07 "Hg3 mi
8:30 AM59 °FHaze.8 mph45%30.07 "Hg2 mi
8:00 AM57 °FHaze.6 mph44%30.07 "Hg2 mi
7:30 AM55 °FHaze.3 mph59%30.07 "Hg2 mi
7:00 AM52 °FHaze.1 mph67%30.04 "Hg2 mi
6:30 AM48 °FFog.1 mph82%30.04 "Hg2 mi
6:00 AM46 °FFog.1 mph87%30.04 "Hg1 mi
5:30 AM48 °FFog.1 mph82%30.07 "Hg1 mi
5:00 AM48 °FFog.No wind82%30.07 "Hg2 mi
4:30 AM46 °FFog.1 mph87%30.04 "Hg2 mi
4:00 AM46 °FFog.1 mph87%30.04 "Hg2 mi
3:30 AM46 °FFog.1 mph87%30.07 "Hg2 mi
3:00 AM48 °FFog.1 mph76%30.07 "Hg2 mi
2:30 AM48 °FFog.1 mph76%30.07 "Hg2 mi
2:00 AM46 °FFog.No wind87%30.07 "Hg2 mi
1:30 AM46 °FHaze.1 mph87%30.09 "Hg2 mi
1:00 AM48 °FHaze.1 mph76%30.09 "Hg2 mi
12:30 AM48 °FHaze.1 mph82%30.09 "Hg2 mi
12:00 AM48 °FHaze.No wind82%30.09 "Hg2 mi
11:30 PM
Apr 19
50 °FHaze.No wind67%30.09 "Hg2 mi
11:00 PM52 °FHaze.1 mph67%30.09 "Hg2 mi
10:30 PM50 °FHaze.No wind71%30.09 "Hg3 mi
10:00 PM50 °FHaze.1 mph67%30.09 "Hg3 mi
9:30 PM52 °FClear.No wind67%30.09 "Hg4 mi
9:00 PM54 °FClear.1 mph58%30.09 "Hg4 mi
8:30 PM54 °FClear.3 mph58%30.09 "Hg4 mi
8:00 PM54 °FClear.3 mph58%30.09 "Hg4 mi
7:30 PM55 °FClear.1 mph55%30.09 "Hg4 mi
7:00 PM55 °FHaze.6 mph55%30.09 "Hg3 mi
Weather by CustomWeather, © 2014

See weather overview